Weather History for Meadow Lake, CO

Change the Weather History Date:

Saturday, March 3, 2012

  Actual Average (KCOS) Record (KCOS)
Temperature  
Mean Temperature 25 °F 36 °F  
Max Temperature 41 °F 49 °F 71 °F (2009)
Min Temperature 9 °F 23 °F -13 °F (1943)
Degree Days  
Heating Degree Days 40 29  
Month to date heating degree days 89  
Since 1 July heating degree days 4652  
Cooling Degree Days 0 0  
Month to date cooling degree days 0  
Year to date cooling degree days 0  
Moisture  
Dew Point 3 °F    
Average Humidity 38    
Maximum Humidity 64    
Minimum Humidity 22    
Precipitation  
Precipitation 0.00 in 0.02 in 0.34 in (1899)
Month to date precipitation 0.07  
Year to date precipitation 0.73  
Snow  
Snow 0.00 in 0.30 in 5.00 in (1899)
Month to date snowfall 0.7  
Since 1 July snowfall 24.7  
Snow Depth -    
Sea Level Pressure  
Sea Level Pressure 30.00 in    
Wind  
Wind Speed 11 mph (NW)    
Max Wind Speed 21 mph    
Max Gust Speed 32 mph    
Visibility 10 miles    
Events      
T = Trace of Precipitation, MM = Missing Value Source: NWS Daily Summary

Daily Weather History Graph

Daily Weather History Graph

Search for Another Location

Airport:

Trip Planner

Search our weather history database for the weather conditions in past years. The results will help you decide how hot, cold, wet, or windy it might be!

Date:

Astronomy

Mar. 03, 2012 Rise Set
Actual Time 6:27 AM MST 5:53 PM MST
Civil Twilight 6:00 AM MST 6:20 PM MST
Nautical Twilight 5:29 AM MST 6:51 PM MST
Astronomical Twilight 4:58 AM MST 7:22 PM MST
Moon 1:08 PM MST (3/3) 3:03 AM MST (3/3)
Length of Visible Light 12h 20m
Length of Day
11h 26m
Waxing Gibbous, 76% of the Moon is Illuminated
Mar 3
Waxing Gibbous
Mar 8
Full
Mar 14
Last Quarter
Mar 22
New
Mar 30
First Quarter

Hourly Weather History & Observations

Time (MST) Temp. Windchill Dew Point Humidity Pressure Visibility Wind Dir Wind Speed Gust Speed Precip Events Conditions
12:18 AM 11.1 °F -2.4 °F 1.0 °F 64% 29.99 in 10.0 mi WNW 10.4 mph - N/A   Clear
12:38 AM 10.6 °F -1.3 °F -0.4 °F 61% 29.99 in 10.0 mi WNW 8.1 mph - N/A   Clear
12:58 AM 9.7 °F -2.4 °F -0.8 °F 63% 29.98 in 10.0 mi WNW 8.1 mph - N/A   Clear
1:18 AM 11.3 °F -1.3 °F -0.6 °F 59% 29.97 in 10.0 mi WNW 9.2 mph - N/A   Clear
1:38 AM 11.3 °F -2.2 °F -0.4 °F 59% 29.98 in 10.0 mi WNW 10.4 mph - N/A   Clear
1:58 AM 10.0 °F -1.9 °F -1.3 °F 60% 29.97 in 10.0 mi WNW 8.1 mph - N/A   Clear
2:18 AM 10.8 °F -1.1 °F -1.3 °F 58% 29.97 in 10.0 mi NW 8.1 mph - N/A   Clear
2:38 AM 12.6 °F 0.2 °F -0.9 °F 55% 29.98 in 10.0 mi NW 9.2 mph - N/A   Clear
2:58 AM 14.5 °F 1.9 °F -1.5 °F 49% 29.98 in 10.0 mi NW 10.4 mph - N/A   Clear
3:18 AM 14.0 °F 2.9 °F -1.5 °F 50% 29.98 in 10.0 mi WNW 8.1 mph - N/A   Clear
3:38 AM 14.7 °F 3.8 °F -2.0 °F 48% 29.99 in 10.0 mi West 8.1 mph - N/A   Clear
3:58 AM 16.2 °F 6.5 °F -0.6 °F 48% 29.99 in 10.0 mi WNW 6.9 mph - N/A   Clear
4:18 AM 15.8 °F - 1.6 °F 54% 29.99 in 10.0 mi Calm Calm - N/A   Scattered Clouds
4:58 AM 14.7 °F - 3.0 °F 60% 29.99 in 10.0 mi Calm Calm - N/A   Clear
5:18 AM 18.0 °F 6.9 °F -0.8 °F 44% 29.98 in 10.0 mi WNW 9.2 mph - N/A   Clear
5:38 AM 18.1 °F 3.9 °F -0.2 °F 45% 30.00 in 10.0 mi WNW 15.0 mph 19.6 mph N/A   Scattered Clouds
5:58 AM 18.3 °F 4.1 °F -0.2 °F 44% 30.00 in 10.0 mi WNW 15.0 mph - N/A   Scattered Clouds
6:18 AM 19.6 °F 6.2 °F -0.4 °F 42% 30.00 in 10.0 mi WNW 13.8 mph - N/A   Overcast
6:38 AM 19.6 °F 8.1 °F 0.9 °F 44% 30.01 in 10.0 mi WNW 10.4 mph - N/A   Overcast
6:58 AM 20.3 °F 9.8 °F 0.9 °F 43% 30.01 in 10.0 mi WNW 9.2 mph - N/A   Overcast
7:18 AM 21.2 °F 10.1 °F 1.8 °F 43% 30.02 in 10.0 mi WNW 10.4 mph - N/A   Overcast
7:38 AM 22.1 °F 11.3 °F 2.3 °F 42% 30.02 in 10.0 mi WNW 10.4 mph - N/A   Mostly Cloudy
7:58 AM 24.6 °F 13.8 °F 2.8 °F 39% 30.03 in 10.0 mi WNW 11.5 mph - N/A   Scattered Clouds
8:18 AM 25.0 °F 13.1 °F 3.0 °F 39% 30.03 in 10.0 mi WNW 13.8 mph - N/A   Scattered Clouds
8:38 AM 27.0 °F 15.2 °F 3.0 °F 36% 30.03 in 10.0 mi WNW 15.0 mph - N/A   Scattered Clouds
8:58 AM 28.6 °F 18.2 °F 3.0 °F 34% 30.04 in 10.0 mi West 12.7 mph - N/A   Scattered Clouds
9:18 AM 29.5 °F 20.4 °F 3.0 °F 32% 30.04 in 10.0 mi WNW 10.4 mph 16.1 mph N/A   Clear
9:38 AM 30.2 °F 21.9 °F 1.6 °F 30% 30.04 in 10.0 mi WNW 9.2 mph 16.1 mph N/A   Clear
9:58 AM 31.6 °F 26.0 °F 2.1 °F 29% 30.04 in 10.0 mi NW 5.8 mph - N/A   Clear
10:18 AM 33.3 °F 24.6 °F 2.7 °F 27% 30.03 in 10.0 mi NW 11.5 mph 18.4 mph N/A   Clear
10:38 AM 34.0 °F 24.2 °F 2.3 °F 26% 30.03 in 10.0 mi NNW 15.0 mph 21.9 mph N/A   Clear
10:58 AM 34.7 °F 26.4 °F 2.7 °F 26% 30.03 in 10.0 mi NNW 11.5 mph 17.3 mph N/A   Clear
11:17 AM 36.1 °F 26.9 °F 3.0 °F 25% 30.03 in 10.0 mi NW 15.0 mph 19.6 mph N/A   Clear
11:37 AM 37.4 °F 28.2 °F 2.7 °F 23% 30.02 in 10.0 mi NW 16.1 mph 20.7 mph N/A   Clear
11:57 AM 38.3 °F 30.1 °F 2.8 °F 23% 30.02 in 10.0 mi NW 13.8 mph 20.7 mph N/A   Clear
12:17 PM 39.0 °F 31.0 °F 2.3 °F 22% 30.01 in 10.0 mi NW 13.8 mph 21.9 mph N/A   Clear
12:37 PM 39.4 °F 30.4 °F 3.9 °F 23% 30.00 in 10.0 mi NNW 17.3 mph 24.2 mph N/A   Clear
12:57 PM 39.2 °F 30.2 °F 3.4 °F 22% 30.00 in 10.0 mi North 17.3 mph 21.9 mph N/A   Scattered Clouds
1:17 PM 39.6 °F 30.6 °F 4.1 °F 23% 30.01 in 10.0 mi NNW 17.3 mph 27.6 mph N/A   Scattered Clouds
1:37 PM 39.7 °F 31.5 °F 3.9 °F 23% 30.00 in 10.0 mi NNW 15.0 mph 26.5 mph N/A   Scattered Clouds
1:57 PM 41.4 °F 32.7 °F 4.8 °F 22% 29.99 in 10.0 mi NNW 18.4 mph 27.6 mph N/A   Clear
2:17 PM 40.5 °F 30.9 °F 4.1 °F 22% 29.99 in 10.0 mi NNW 20.7 mph 26.5 mph N/A   Clear
2:37 PM 40.8 °F 31.7 °F 5.4 °F 23% 30.00 in 10.0 mi North 19.6 mph 26.5 mph N/A   Clear
2:57 PM 40.6 °F 32.7 °F 5.7 °F 24% 30.00 in 10.0 mi NNW 15.0 mph 28.8 mph N/A   Clear
3:17 PM 41.2 °F 32.7 °F 6.8 °F 24% 30.00 in 10.0 mi NNW 17.3 mph 27.6 mph N/A   Clear
3:37 PM 40.8 °F 32.6 °F 6.8 °F 25% 30.00 in 10.0 mi NNW 16.1 mph 27.6 mph N/A   Clear
3:57 PM 40.1 °F 31.0 °F 6.8 °F 25% 30.00 in 10.0 mi NNW 18.4 mph 28.8 mph N/A   Clear
4:17 PM 39.9 °F 31.1 °F 7.2 °F 26% 30.00 in 10.0 mi NNW 17.3 mph 32.2 mph N/A   Clear
4:37 PM 39.7 °F 30.9 °F 8.1 °F 27% 30.01 in 10.0 mi NNW 17.3 mph 24.2 mph N/A   Clear
4:57 PM 39.6 °F 32.1 °F 8.1 °F 27% 30.00 in 10.0 mi NNW 12.7 mph 25.3 mph N/A   Clear
5:17 PM 38.1 °F 32.9 °F 9.0 °F 30% 30.00 in 10.0 mi NNW 6.9 mph - N/A   Clear
5:37 PM 35.6 °F 29.9 °F 9.0 °F 33% 30.01 in 10.0 mi WNW 6.9 mph - N/A   Clear
5:57 PM 34.2 °F 27.5 °F 9.5 °F 36% 30.01 in 10.0 mi NW 8.1 mph - N/A   Clear
6:17 PM 31.8 °F 26.2 °F 10.6 °F 41% 30.01 in 10.0 mi SW 5.8 mph - N/A   Clear
6:37 PM 28.9 °F 23.9 °F 12.0 °F 49% 30.01 in 10.0 mi West 4.6 mph - N/A   Clear
6:57 PM 29.8 °F 22.2 °F 11.1 °F 46% 30.00 in 10.0 mi West 8.1 mph - N/A   Clear
7:17 PM 32.0 °F 23.6 °F 10.4 °F 41% 30.01 in 10.0 mi West 10.4 mph - N/A   Clear
7:37 PM 32.5 °F 25.5 °F 10.0 °F 39% 30.01 in 10.0 mi West 8.1 mph - N/A   Clear
7:57 PM 30.0 °F 22.4 °F 10.9 °F 45% 30.02 in 10.0 mi West 8.1 mph - N/A   Clear
8:17 PM 29.3 °F 25.6 °F 11.1 °F 47% 30.02 in 10.0 mi West 3.5 mph - N/A   Clear
8:37 PM 30.2 °F 23.4 °F 10.4 °F 44% 30.02 in 10.0 mi West 6.9 mph - N/A   Clear
8:57 PM 29.3 °F - 11.3 °F 47% 30.02 in 10.0 mi Calm Calm - N/A   Clear
9:17 PM 31.1 °F - 9.3 °F 40% 30.02 in 10.0 mi Calm Calm - N/A   Clear
9:37 PM 30.0 °F 24.1 °F 10.2 °F 44% 30.02 in 10.0 mi West 5.8 mph - N/A   Clear
9:57 PM 30.4 °F 22.2 °F 12.7 °F 48% 30.01 in 10.0 mi WNW 9.2 mph - N/A   Clear
10:17 PM 32.2 °F 23.8 °F 12.4 °F 44% 30.00 in 10.0 mi WNW 10.4 mph - N/A   Clear
10:37 PM 33.4 °F 24.3 °F 12.4 °F 42% 30.00 in 10.0 mi WNW 12.7 mph - N/A   Clear
10:57 PM 35.2 °F 25.0 °F 11.8 °F 38% 29.99 in 10.0 mi WNW 17.3 mph 21.9 mph N/A   Clear
11:17 PM 35.4 °F 26.4 °F 12.4 °F 39% 30.00 in 10.0 mi WNW 13.8 mph 24.2 mph N/A   Clear
11:37 PM 36.9 °F 26.8 °F 12.0 °F 36% 29.99 in 10.0 mi WNW 18.4 mph 25.3 mph N/A   Clear
11:57 PM 37.4 °F 26.9 °F 12.0 °F 35% 29.99 in 10.0 mi WNW 20.7 mph 25.3 mph N/A   Clear